Flag for Turkmenistan Weather past 2 weeks in Ashgabat, Turkmenistan

Now
82 °F

Scattered clouds.


Feels Like: 80 °F
Forecast: 66 / 87 °F
Wind: 6 mph from East

Location: Ashgabat

Current Time: Aug 28, 2015 at 8:33:54 PM

Latest Report: Aug 28, 2015 at 8:00 PM


Visibility: N/A

Pressure: 30.07 "Hg

Humidity: 16%

Dew point: 32 °F

Location of AshgabatLocation

Historic Weather in Ashgabat — Graph

°F

Ashgabat temperature yesterday

Maximum temperature yesterday: 84 °F (at 2:00 PM)
Minimum temperature yesterday: 66 °F (at 6:00 AM)
Average temperature yesterday: 77 °F

Past Weeks' High & Low Weather Summary

 TemperatureHumidityPressure
High109 °F (Aug 17, 2:30 PM)64% (Aug 26, 6:00 AM)30.12 "Hg (Aug 26, 6:00 AM)
Low66 °F (Aug 26, 6:00 AM)7% (Aug 16, 2:30 PM)29.62 "Hg (Aug 17, 3:00 PM)
Average86 °F26%29.85 "Hg
* Reported Aug 13 7:00 PM — Aug 28 7:30 PM, Ashgabat, Weather by CustomWeather, © 2015

Note: Actual official high and low records may vary slightly from our data, if they occured in-between our weather recording intervals... More about our weather records

Advertising

Ashgabat weather history for previous 24 hours

 ConditionsComfort  
Time TempWeatherWind HumidityBarometerVisibility
7:30 PM
Fri, Aug 28
84 °FPassing clouds.3 mph14%30.07 "HgN/A
7:00 PM86 °FPassing clouds.3 mph13%30.07 "HgN/A
6:00 PM88 °FPassing clouds.8 mph13%30.07 "HgN/A
5:00 PM90 °FPassing clouds.3 mph12%30.07 "HgN/A
4:00 PM90 °FPassing clouds.8 mph12%30.07 "HgN/A
3:00 PM90 °FBroken clouds.6 mph11%30.07 "HgN/A
2:00 PM88 °FBroken clouds.6 mph12%30.09 "HgN/A
1:00 PM86 °FPartly sunny.6 mph14%30.09 "HgN/A
12:00 PM84 °FBroken clouds.1 mph16%30.09 "HgN/A
11:00 AM79 °FPartly sunny.1 mph20%30.12 "HgN/A
10:00 AM77 °FPartly sunny.1 mph22%30.12 "HgN/A
9:00 AM73 °FPartly sunny.3 mph25%30.12 "HgN/A
8:00 AM70 °FPartly sunny.1 mph35%30.09 "HgN/A
7:30 AM68 °FPassing clouds.3 mph46%30.09 "HgN/A
7:00 AM66 °FPassing clouds.6 mph49%30.09 "HgN/A
6:30 AM68 °FPassing clouds.3 mph33%30.09 "HgN/A
6:00 AM72 °FPassing clouds.1 mph29%30.07 "HgN/A
5:30 AM70 °FPassing clouds.1 mph29%30.07 "HgN/A
5:00 AM70 °FPassing clouds.3 mph27%30.07 "HgN/A
4:30 AM72 °FPassing clouds.6 mph23%30.07 "HgN/A
4:00 AM72 °FPassing clouds.6 mph27%30.07 "HgN/A
3:00 AM70 °FPassing clouds.3 mph38%30.07 "HgN/A
2:00 AM70 °FPassing clouds.3 mph43%30.07 "Hg3 mi
1:00 AM72 °FPassing clouds.1 mph44%30.07 "Hg5 mi
12:00 AM75 °FPassing clouds.3 mph34%30.07 "HgN/A
11:00 PM
Thu, Aug 27
75 °FPassing clouds.No wind34%30.07 "HgN/A
10:00 PM81 °FPassing clouds.1 mph26%30.04 "HgN/A
9:30 PM82 °FPassing clouds.1 mph23%30.04 "HgN/A
9:00 PM82 °FPassing clouds.1 mph21%30.04 "HgN/A
8:30 PM82 °FMostly cloudy.3 mph21%30.04 "HgN/A
8:00 PM82 °FMostly cloudy.3 mph21%30.01 "HgN/A
Weather by CustomWeather, © 2015

See weather overviewHow to use our weather pages